Location: ?????
(42.2640°N, 43.4211°E)
Time: 01:41:42
(UTC+00:00)

Cosmos 1892 Rocket - Pass Details

Date: 07 August 2020
Orbit: 605 x 634 km, 82.5° (Epoch: 23 September)

Event Time Altitude Azimuth Distance (km) Brightness Sun altitude
Rises 00:01:30 0° 346° (NNW) 2,935 7.5 -19.6°
Reaches altitude 10° 00:03:48 10° 341° (NNW) 2,020 6.5 -19.3°
Maximum altitude 00:08:07 48° 267° (W) 821 3.8 -18.8°
Enters shadow 00:09:03 41° 230° (SW) 911 3.9 -18.6°
